Location: Katowice
(50.2611°N, 19.0242°E)
Time: 14:45:23
(UTC+02:00)

ISS - Pass Details

Date: 29 March 2019
Orbit: 408 x 410 km, 51.6° (Epoch: 25 April)

Event Time Altitude Azimuth Distance (km) Brightness Sun altitude
Rises 20:05:07 0° 279° (W) 2,337 1.3 -18.1°
Reaches altitude 10° 20:07:13 10° 281° (WNW) 1,475 0.1 -18.4°
Maximum altitude 20:10:31 70° 5° (N) 439 -3.7 -18.9°
Enters shadow 20:10:55 61° 55° (NE) 471 -3.7 -18.9°
